{"data":{"norad_id":69955,"intl_designator":"2026-157N","name":"STARLINK-37928","alt_names":[],"object_type":"PAYLOAD","status":"ACTIVE","operator":null,"country":"US","launch_date":"2026-07-09","launch_site_code":"AFETR","launch_vehicle":null,"mission":null,"orbit_class":"UNKNOWN","rcs_meters":null,"size_class":null,"mass_kg":null,"dimensions":null,"purposes":["comms"],"wikipedia_slug":null,"has_3d_model":false,"image_url":null,"decayed_at":null,"tle_current":{"epoch":"2026-09-19T16:57:17.440704Z","epoch_age_seconds":86381,"freshness":"FRESH","line1":"1 69955U 26157N   26262.70645186  .00022570  00000+0  67663-3 0  9996","line2":"2 69955  53.1580 337.2335 0001568  60.6150 299.5009 15.34422189 11254","mean_motion":15.34422189,"eccentricity":0.0001568,"inclination_deg":53.158,"raan_deg":337.2335,"arg_perigee_deg":60.615,"mean_anomaly_deg":299.5009,"bstar":0.00067663,"rev_number":1125,"period_min":93.846400965986,"perigee_km":461.56465720896,"apogee_km":463.7099240265,"semimajor_km":6840.7742906177,"source":"CELESTRAK","updated_at":"2026-09-20T09:00:44.301329Z"}}}